TimeEDT,TemperatureF,Dew PointF,Humidity,Sea Level PressureIn,VisibilityMPH,Wind Direction,Wind SpeedMPH,Gust SpeedMPH,PrecipitationIn,Events,Conditions,WindDirDegrees,DateUTC
12:01 AM,59.0,55.4,88,29.61,10.0,West,5.8,-,N/A,,Overcast,260,2011-10-14 04:01:00
12:53 AM,57.0,55.0,93,29.58,4.0,Calm,Calm,-,0.02,Rain,Light Rain,0,2011-10-14 04:53:00
1:27 AM,57.2,55.4,94,29.61,5.0,Variable,4.6,-,0.01,Rain,Light Rain,0,2011-10-14 05:27:00
1:53 AM,57.0,55.0,93,29.59,9.0,West,8.1,18.4,0.01,Rain,Light Rain,260,2011-10-14 05:53:00
2:13 AM,57.2,53.6,88,29.62,10.0,West,9.2,-,0.00,,Overcast,280,2011-10-14 06:13:00
2:25 AM,57.2,53.6,88,29.62,10.0,Variable,5.8,-,0.00,,Overcast,0,2011-10-14 06:25:00
2:46 AM,55.4,53.6,94,29.63,10.0,West,8.1,-,0.00,,Overcast,260,2011-10-14 06:46:00
2:51 AM,55.4,53.6,94,29.63,10.0,Variable,5.8,-,0.00,,Overcast,0,2011-10-14 06:51:00
2:53 AM,55.9,53.1,90,29.61,10.0,Variable,4.6,-,0.00,,Overcast,0,2011-10-14 06:53:00
3:06 AM,55.4,53.6,94,29.63,6.0,WSW,5.8,-,0.00,Rain,Rain,250,2011-10-14 07:06:00
3:18 AM,55.4,53.6,94,29.64,7.0,Variable,6.9,-,0.01,Rain,Light Rain,0,2011-10-14 07:18:00
3:53 AM,55.0,52.0,89,29.62,10.0,Variable,5.8,-,0.02,Rain,Light Rain,0,2011-10-14 07:53:00
4:00 AM,55.4,51.8,88,29.64,10.0,West,6.9,-,0.01,Rain,Light Rain,260,2011-10-14 08:00:00
4:53 AM,53.1,50.0,89,29.63,10.0,Variable,5.8,-,0.01,,Scattered Clouds,0,2011-10-14 08:53:00
5:53 AM,52.0,50.0,93,29.66,9.0,Variable,4.6,-,N/A,,Clear,0,2011-10-14 09:53:00
6:53 AM,52.0,48.9,89,29.68,8.0,Variable,4.6,-,N/A,,Clear,0,2011-10-14 10:53:00
7:53 AM,52.0,48.9,89,29.69,10.0,Calm,Calm,-,N/A,,Clear,0,2011-10-14 11:53:00
8:53 AM,53.1,50.0,89,29.71,10.0,Variable,3.5,-,N/A,,Clear,0,2011-10-14 12:53:00
9:53 AM,55.9,50.0,80,29.73,10.0,Variable,5.8,-,N/A,,Partly Cloudy,0,2011-10-14 13:53:00
10:53 AM,57.9,46.9,67,29.75,10.0,West,8.1,19.6,N/A,,Clear,270,2011-10-14 14:53:00
11:53 AM,61.0,46.0,58,29.75,10.0,West,13.8,20.7,N/A,,Clear,260,2011-10-14 15:53:00
12:53 PM,62.1,42.1,48,29.75,10.0,West,10.4,23.0,N/A,,Partly Cloudy,260,2011-10-14 16:53:00
1:53 PM,64.0,39.9,41,29.73,10.0,WSW,11.5,20.7,N/A,,Partly Cloudy,250,2011-10-14 17:53:00
2:53 PM,66.2,33.8,30,29.74,10.0,West,13.8,29.9,N/A,,Partly Cloudy,270,2011-10-14 18:53:00
3:53 PM,66.9,34.0,30,29.71,10.0,West,9.2,25.3,N/A,,Scattered Clouds,260,2011-10-14 19:53:00
4:07 PM,66.2,35.6,32,29.73,10.0,WSW,8.1,26.5,N/A,,Scattered Clouds,250,2011-10-14 20:07:00
4:53 PM,64.9,33.1,31,29.72,10.0,West,12.7,27.6,N/A,,Scattered Clouds,270,2011-10-14 20:53:00
5:53 PM,64.0,32.0,30,29.73,10.0,West,16.1,31.1,N/A,,Scattered Clouds,260,2011-10-14 21:53:00
6:53 PM,61.0,30.9,32,29.76,10.0,West,11.5,20.7,N/A,,Clear,260,2011-10-14 22:53:00
7:53 PM,59.0,33.1,38,29.79,10.0,Variable,6.9,-,N/A,,Clear,0,2011-10-14 23:53:00
8:53 PM,57.0,34.0,42,29.81,10.0,WSW,4.6,-,N/A,,Clear,240,2011-10-15 00:53:00
9:53 PM,55.0,35.1,47,29.82,10.0,WSW,3.5,-,N/A,,Clear,240,2011-10-15 01:53:00
10:53 PM,54.0,34.0,47,29.82,10.0,WSW,5.8,-,N/A,,Clear,240,2011-10-15 02:53:00
11:53 PM,55.0,35.1,47,29.81,10.0,Variable,3.5,-,N/A,,Mostly Cloudy,0,2011-10-15 03:53:00